RYR4603 EPPO-LGSA

Flight info

Callsign RYR4603
Flight time 2h 30m
Altitude 37000
Route XIDN2B XIDNA DCT DESEN DCT PARAK DCT RAXAD DCT MAKED UL617 SKP UM749 ATV UP169 MANOK L612 RUSOS RUSO2F
Aircraft B38M/M-SDE1FGHILORVWXY/HB1

Departure

Time 2026-05-04 15:28
Airport Poznań-Ławica Airport (EPPO)

Arrival

Time 2026-05-04 17:59
Airport Chania International Airport (LGSA)
Time Latitude Longitude Altitude Speed Heading
2026-05-04 15:04 52.41590 16.82913 290 ft 0 kts 192°
2026-05-04 15:19 52.41612 16.82920 290 ft 4 kts 185°
2026-05-04 15:20 52.41638 16.82916 296 ft 4 kts 159°
2026-05-04 15:20 52.41657 16.82902 295 ft 1 kts 154°
2026-05-04 15:20 52.41660 16.82899 295 ft 0 kts 154°
2026-05-04 15:24 52.41650 16.82927 294 ft 3 kts 99°
2026-05-04 15:24 52.41621 16.83170 292 ft 19 kts 104°
2026-05-04 15:25 52.41590 16.83399 292 ft 22 kts 101°
2026-05-04 15:25 52.41568 16.83612 293 ft 16 kts 92°
2026-05-04 15:25 52.41563 16.83793 291 ft 14 kts 92°
2026-05-04 15:26 52.41618 16.83961 291 ft 8 kts 44°
2026-05-04 15:26 52.41657 16.83994 293 ft 6 kts 19°
2026-05-04 15:26 52.41749 16.84050 293 ft 2 kts 21°
2026-05-04 15:27 52.41773 16.84064 292 ft 6 kts 20°
2026-05-04 15:27 52.41822 16.84073 295 ft 3 kts 314°
2026-05-04 15:28 52.41982 16.83254 289 ft 104 kts 287°
2026-05-04 15:28 52.42271 16.81785 304 ft 163 kts 288°
2026-05-04 15:28 52.43008 16.78049 1819 ft 175 kts 285°
2026-05-04 15:29 52.43379 16.76112 2575 ft 183 kts 287°
2026-05-04 15:30 52.44809 16.66920 4936 ft 236 kts 255°
2026-05-04 15:30 52.40822 16.62178 7265 ft 268 kts 187°
2026-05-04 15:31 52.37101 16.63412 9026 ft 281 kts 166°
2026-05-04 15:31 52.35235 16.64449 9888 ft 284 kts 166°
2026-05-04 15:32 52.29202 16.67768 11477 ft 324 kts 166°
2026-05-04 15:32 52.24892 16.70128 13046 ft 331 kts 165°
2026-05-04 15:33 52.20473 16.72541 14489 ft 339 kts 165°
2026-05-04 15:34 52.13648 16.76259 16527 ft 351 kts 165°
2026-05-04 15:34 52.11315 16.77526 17184 ft 355 kts 165°
2026-05-04 15:34 52.06542 16.79813 18408 ft 361 kts 169°
2026-05-04 15:35 52.01663 16.81857 19498 ft 367 kts 169°
2026-05-04 15:35 51.99176 16.82891 20041 ft 370 kts 169°
2026-05-04 15:35 51.96671 16.83931 20585 ft 373 kts 169°
2026-05-04 15:36 51.91606 16.86030 21660 ft 378 kts 169°
2026-05-04 15:36 51.89045 16.87090 22192 ft 381 kts 169°
2026-05-04 15:36 51.86466 16.88156 22720 ft 384 kts 169°
2026-05-04 15:37 51.83863 16.89230 23255 ft 387 kts 169°
2026-05-04 15:37 51.81240 16.90311 23734 ft 390 kts 170°
2026-05-04 15:37 51.78601 16.91397 24167 ft 393 kts 170°
2026-05-04 15:37 51.75942 16.92491 24574 ft 396 kts 169°
2026-05-04 15:38 51.73260 16.93592 25012 ft 399 kts 169°
2026-05-04 15:38 51.70558 16.94701 25437 ft 402 kts 170°
2026-05-04 15:38 51.67838 16.95815 25848 ft 405 kts 170°
2026-05-04 15:38 51.65097 16.96936 26265 ft 408 kts 170°
2026-05-04 15:39 51.62339 16.98063 26677 ft 410 kts 170°
2026-05-04 15:39 51.59561 16.99197 27070 ft 413 kts 170°
2026-05-04 15:39 51.53953 17.01482 27852 ft 419 kts 170°
2026-05-04 15:40 51.51120 17.02633 28217 ft 421 kts 169°
2026-05-04 15:40 51.48267 17.03792 28567 ft 424 kts 169°
2026-05-04 15:40 51.45396 17.04956 28923 ft 427 kts 169°
2026-05-04 15:40 51.42542 17.06112 29269 ft 430 kts 169°
2026-05-04 15:41 51.39632 17.07289 29627 ft 432 kts 169°
2026-05-04 15:41 51.36708 17.08470 29987 ft 435 kts 169°
2026-05-04 15:41 51.33765 17.09657 30288 ft 437 kts 169°
2026-05-04 15:41 51.30806 17.10849 30597 ft 439 kts 169°
2026-05-04 15:42 51.27841 17.12043 30898 ft 441 kts 169°
2026-05-04 15:42 51.24855 17.13243 31188 ft 443 kts 169°
2026-05-04 15:42 51.21856 17.14446 31483 ft 445 kts 169°
2026-05-04 15:42 51.18849 17.15651 31768 ft 447 kts 169°
2026-05-04 15:43 51.15823 17.16862 32058 ft 449 kts 169°
2026-05-04 15:43 51.12790 17.18074 32354 ft 451 kts 169°
2026-05-04 15:43 51.09740 17.19291 32625 ft 453 kts 169°
2026-05-04 15:43 51.06680 17.20511 32903 ft 455 kts 169°
2026-05-04 15:44 51.03604 17.21735 33179 ft 456 kts 169°
2026-05-04 15:44 51.00520 17.22961 33503 ft 457 kts 169°
2026-05-04 15:44 50.97442 17.24184 33871 ft 456 kts 169°
2026-05-04 15:44 50.94367 17.25402 34196 ft 455 kts 169°
2026-05-04 15:45 50.91294 17.26618 34513 ft 455 kts 169°
2026-05-04 15:45 50.88226 17.27831 34819 ft 454 kts 169°
2026-05-04 15:45 50.85161 17.29040 35121 ft 454 kts 169°
2026-05-04 15:45 50.82098 17.30248 35419 ft 453 kts 169°
2026-05-04 15:46 50.79038 17.31453 35716 ft 453 kts 169°
2026-05-04 15:46 50.75980 17.32655 35993 ft 453 kts 169°
2026-05-04 15:46 50.72926 17.33854 36253 ft 452 kts 169°
2026-05-04 15:46 50.69872 17.35052 36505 ft 452 kts 169°
2026-05-04 15:47 50.66819 17.36247 36771 ft 452 kts 169°
2026-05-04 15:47 50.63767 17.37440 36963 ft 452 kts 169°
2026-05-04 15:47 50.60711 17.38634 36967 ft 452 kts 169°
2026-05-04 15:48 50.54630 17.41004 36954 ft 450 kts 169°
2026-05-04 15:48 50.45501 17.44551 36958 ft 451 kts 168°
2026-05-04 15:49 50.39407 17.46910 36956 ft 451 kts 168°
2026-05-04 15:49 50.33312 17.49264 36962 ft 451 kts 168°
2026-05-04 15:50 50.27219 17.51653 36968 ft 452 kts 164°
2026-05-04 15:50 50.21418 17.55531 36945 ft 455 kts 159°
2026-05-04 15:51 50.15616 17.59480 36981 ft 455 kts 159°
2026-05-04 15:51 50.09814 17.63431 36972 ft 455 kts 159°
2026-05-04 15:52 50.04026 17.67363 36978 ft 454 kts 159°
2026-05-04 15:52 49.98242 17.71283 36975 ft 454 kts 159°
2026-05-04 15:53 49.92451 17.75196 36982 ft 454 kts 158°
2026-05-04 15:53 49.86697 17.79075 36981 ft 453 kts 158°
2026-05-04 15:54 49.80908 17.82965 36991 ft 454 kts 159°
2026-05-04 15:54 49.75115 17.86850 36991 ft 454 kts 159°
2026-05-04 15:55 49.69327 17.90720 36990 ft 453 kts 159°
2026-05-04 15:55 49.63522 17.94592 36996 ft 455 kts 159°
2026-05-04 15:56 49.57717 17.98455 36991 ft 454 kts 159°
2026-05-04 15:56 49.51910 18.02308 36993 ft 455 kts 159°
2026-05-04 15:57 49.46100 18.06153 36991 ft 454 kts 159°
2026-05-04 15:57 49.40301 18.09981 37000 ft 454 kts 159°
2026-05-04 15:58 49.34498 18.13801 36997 ft 453 kts 159°
2026-05-04 15:58 49.28692 18.17614 37007 ft 455 kts 159°
2026-05-04 15:59 49.22890 18.21415 37010 ft 453 kts 159°
2026-05-04 15:59 49.17094 18.25202 36999 ft 453 kts 159°
2026-05-04 16:00 49.11296 18.28980 37013 ft 454 kts 159°
2026-05-04 16:00 49.05491 18.32754 37016 ft 453 kts 159°
2026-05-04 16:01 48.99723 18.36493 37013 ft 453 kts 158°
2026-05-04 16:01 48.93918 18.40247 37019 ft 453 kts 159°
2026-05-04 16:02 48.88102 18.44000 37017 ft 455 kts 159°
2026-05-04 16:03 48.79334 18.49639 37032 ft 456 kts 159°
2026-05-04 16:03 48.73494 18.53380 37020 ft 456 kts 159°
2026-05-04 16:04 48.67638 18.57127 37018 ft 456 kts 158°
2026-05-04 16:04 48.58863 18.62718 37021 ft 457 kts 158°
2026-05-04 16:05 48.53034 18.66421 37030 ft 454 kts 158°
2026-05-04 16:06 48.44258 18.71980 37026 ft 456 kts 158°
2026-05-04 16:07 48.32543 18.79367 37021 ft 458 kts 158°
2026-05-04 16:08 48.20771 18.86754 37029 ft 458 kts 158°
2026-05-04 16:09 48.06070 18.95927 37044 ft 457 kts 158°
2026-05-04 16:10 47.95321 19.02596 37022 ft 457 kts 158°
2026-05-04 16:11 47.83540 19.09875 37028 ft 457 kts 158°
2026-05-04 16:12 47.65856 19.20731 37025 ft 459 kts 158°
2026-05-04 16:13 47.54060 19.27927 37046 ft 458 kts 158°
2026-05-04 16:14 47.42275 19.35082 37058 ft 458 kts 158°
2026-05-04 16:16 47.27558 19.43970 37043 ft 459 kts 158°
2026-05-04 16:17 47.12750 19.52857 37051 ft 460 kts 158°
2026-05-04 16:18 47.00906 19.59928 37060 ft 460 kts 158°
2026-05-04 16:19 46.86040 19.68754 37055 ft 462 kts 158°
2026-05-04 16:20 46.71133 19.77552 37051 ft 462 kts 158°
2026-05-04 16:22 46.56200 19.86313 37066 ft 464 kts 158°
2026-05-04 16:23 46.38233 19.96790 37070 ft 464 kts 158°
2026-05-04 16:25 46.20259 20.07198 37067 ft 464 kts 158°
2026-05-04 16:26 45.99402 20.19589 37081 ft 464 kts 157°
2026-05-04 16:28 45.84461 20.28446 37074 ft 465 kts 157°
2026-05-04 16:29 45.63481 20.40798 37077 ft 464 kts 157°
2026-05-04 16:31 45.48572 20.49514 37084 ft 465 kts 157°
2026-05-04 16:32 45.30607 20.59951 37087 ft 465 kts 157°
2026-05-04 16:33 45.18595 20.66890 37087 ft 466 kts 157°
2026-05-04 16:34 45.09578 20.72078 37087 ft 466 kts 157°
2026-05-04 16:35 44.91471 20.82442 37084 ft 469 kts 157°
2026-05-04 16:36 44.82401 20.87607 37083 ft 469 kts 157°
2026-05-04 16:37 44.73326 20.92758 37096 ft 468 kts 157°
2026-05-04 16:38 44.61278 20.99568 37083 ft 467 kts 157°
2026-05-04 16:39 44.46221 21.08038 37088 ft 466 kts 157°
2026-05-04 16:40 44.34217 21.14756 37087 ft 465 kts 157°
2026-05-04 16:41 44.19169 21.23135 37093 ft 466 kts 157°
2026-05-04 16:43 44.04125 21.31467 37089 ft 468 kts 158°
2026-05-04 16:43 43.95051 21.36470 37094 ft 468 kts 158°
2026-05-04 16:45 43.76893 21.46432 37089 ft 467 kts 158°
2026-05-04 16:46 43.61767 21.54682 37085 ft 468 kts 158°
2026-05-04 16:47 43.49652 21.61257 37077 ft 467 kts 158°
2026-05-04 16:48 43.37524 21.67811 37073 ft 468 kts 158°
2026-05-04 16:49 43.25391 21.74338 37066 ft 469 kts 158°
2026-05-04 16:50 43.13211 21.80864 37079 ft 470 kts 158°
2026-05-04 16:51 43.04067 21.85745 37078 ft 471 kts 158°
2026-05-04 16:52 42.91883 21.92223 37094 ft 470 kts 158°
2026-05-04 16:53 42.82737 21.97069 37093 ft 470 kts 158°
2026-05-04 16:54 42.70502 22.03527 37094 ft 472 kts 158°
2026-05-04 16:55 42.52135 22.13174 37126 ft 472 kts 158°
2026-05-04 16:56 42.36894 22.21133 37112 ft 470 kts 158°
2026-05-04 16:57 42.28654 22.24807 37102 ft 468 kts 172°
2026-05-04 16:58 42.15755 22.27837 37106 ft 472 kts 170°
2026-05-04 17:00 41.96339 22.32396 37087 ft 472 kts 170°
2026-05-04 17:01 41.80149 22.36176 37081 ft 472 kts 170°
2026-05-04 17:02 41.67165 22.39193 37070 ft 474 kts 170°
2026-05-04 17:03 41.57419 22.41449 37077 ft 474 kts 170°
2026-05-04 17:03 41.47648 22.43705 37078 ft 475 kts 170°
2026-05-04 17:04 41.34622 22.46701 37073 ft 474 kts 170°
2026-05-04 17:05 41.21705 22.49661 37066 ft 473 kts 170°
2026-05-04 17:06 41.12085 22.52418 37044 ft 471 kts 153°
2026-05-04 17:07 41.04302 22.57829 37060 ft 473 kts 151°
2026-05-04 17:07 40.97554 22.62604 37062 ft 473 kts 151°
2026-05-04 17:08 40.88826 22.68791 37065 ft 478 kts 151°
2026-05-04 17:09 40.82966 22.72935 37064 ft 478 kts 151°
2026-05-04 17:09 40.77105 22.77071 37065 ft 478 kts 151°
2026-05-04 17:10 40.62560 22.87299 37078 ft 474 kts 151°
2026-05-04 17:11 40.56735 22.91381 37075 ft 474 kts 151°
2026-05-04 17:12 40.47997 22.97491 37081 ft 474 kts 151°
2026-05-04 17:13 40.32749 23.05551 37075 ft 474 kts 159°
2026-05-04 17:14 40.20397 23.11683 37095 ft 475 kts 159°
2026-05-04 17:15 40.11189 23.16238 37074 ft 471 kts 159°
2026-05-04 17:16 39.98921 23.22287 37063 ft 472 kts 159°
2026-05-04 17:17 39.86591 23.28345 37075 ft 474 kts 159°
2026-05-04 17:18 39.74242 23.34389 37069 ft 476 kts 160°
2026-05-04 17:19 39.61808 23.40452 37080 ft 477 kts 160°
2026-05-04 17:20 39.49403 23.46478 37082 ft 475 kts 160°
2026-05-04 17:20 39.40099 23.50982 37091 ft 476 kts 160°
2026-05-04 17:21 39.27679 23.56974 37074 ft 478 kts 160°
2026-05-04 17:22 39.21438 23.59974 37076 ft 479 kts 160°
2026-05-04 17:23 39.11739 23.62488 37032 ft 477 kts 174°
2026-05-04 17:23 39.08452 23.63006 37072 ft 476 kts 175°
2026-05-04 17:24 38.98544 23.64485 37091 ft 482 kts 175°
2026-05-04 17:25 38.85235 23.66446 37109 ft 482 kts 175°
2026-05-04 17:26 38.71811 23.68418 37133 ft 486 kts 175°
2026-05-04 17:27 38.54958 23.70882 37138 ft 490 kts 176°
2026-05-04 17:28 38.41424 23.72852 37121 ft 490 kts 176°
2026-05-04 17:29 38.21063 23.75802 37132 ft 489 kts 176°
2026-05-04 17:31 38.04188 23.78243 37112 ft 488 kts 176°
2026-05-04 17:32 37.87275 23.80729 37120 ft 491 kts 175°
2026-05-04 17:33 37.73723 23.82920 37116 ft 491 kts 175°
2026-05-04 17:34 37.63681 23.85276 37139 ft 494 kts 160°
2026-05-04 17:34 37.60419 23.86673 37100 ft 496 kts 165°
2026-05-04 17:35 37.43999 23.92710 35986 ft 486 kts 166°
2026-05-04 17:35 37.40751 23.93888 35327 ft 487 kts 166°
2026-05-04 17:36 37.37498 23.95066 34785 ft 486 kts 166°
2026-05-04 17:36 37.34263 23.96237 34333 ft 482 kts 166°
2026-05-04 17:36 37.31045 23.97401 33816 ft 480 kts 166°
2026-05-04 17:36 37.27842 23.98558 33240 ft 478 kts 166°
2026-05-04 17:37 37.24649 23.99710 32712 ft 476 kts 166°
2026-05-04 17:37 37.21475 24.00855 32226 ft 473 kts 165°
2026-05-04 17:37 37.18326 24.01990 31734 ft 470 kts 165°
2026-05-04 17:37 37.15193 24.03117 31231 ft 467 kts 165°
2026-05-04 17:38 37.12076 24.04239 30721 ft 465 kts 165°
2026-05-04 17:38 37.08969 24.05355 30226 ft 463 kts 165°
2026-05-04 17:38 37.05878 24.06465 29654 ft 461 kts 165°
2026-05-04 17:38 37.02790 24.07471 29005 ft 459 kts 171°
2026-05-04 17:39 36.96391 24.08826 26935 ft 474 kts 171°
2026-05-04 17:39 36.93126 24.09573 25959 ft 479 kts 170°
2026-05-04 17:39 36.89843 24.10340 25040 ft 482 kts 169°
2026-05-04 17:40 36.86544 24.11114 24285 ft 480 kts 169°
2026-05-04 17:40 36.83314 24.11870 24090 ft 464 kts 169°
2026-05-04 17:40 36.80179 24.12604 23759 ft 454 kts 170°
2026-05-04 17:40 36.77092 24.13327 23198 ft 449 kts 170°
2026-05-04 17:41 36.74044 24.14040 22745 ft 442 kts 170°
2026-05-04 17:41 36.71041 24.14742 22319 ft 435 kts 170°
2026-05-04 17:41 36.68084 24.15432 21893 ft 429 kts 169°
2026-05-04 17:41 36.65171 24.16112 21469 ft 423 kts 169°
2026-05-04 17:42 36.62297 24.16783 21052 ft 418 kts 169°
2026-05-04 17:42 36.59456 24.17444 20635 ft 413 kts 169°
2026-05-04 17:42 36.56649 24.18098 20228 ft 408 kts 169°
2026-05-04 17:42 36.53872 24.18744 19824 ft 404 kts 169°
2026-05-04 17:43 36.51156 24.19376 19423 ft 400 kts 169°
2026-05-04 17:43 36.48429 24.20009 19025 ft 397 kts 169°
2026-05-04 17:43 36.45727 24.20636 18634 ft 393 kts 169°
2026-05-04 17:43 36.43051 24.21257 18211 ft 390 kts 169°
2026-05-04 17:44 36.40398 24.21872 17793 ft 386 kts 169°
2026-05-04 17:44 36.37773 24.22480 17396 ft 381 kts 169°
2026-05-04 17:44 36.35184 24.23079 17011 ft 377 kts 169°
2026-05-04 17:44 36.32618 24.23674 16616 ft 373 kts 169°
2026-05-04 17:45 36.30078 24.24260 16241 ft 370 kts 169°
2026-05-04 17:45 36.27560 24.24842 15865 ft 367 kts 169°
2026-05-04 17:45 36.25064 24.25418 15492 ft 364 kts 169°
2026-05-04 17:45 36.22584 24.25991 15117 ft 361 kts 169°
2026-05-04 17:46 36.20126 24.26558 14757 ft 358 kts 169°
2026-05-04 17:46 36.18474 24.26938 14504 ft 356 kts 169°
2026-05-04 17:46 36.16044 24.27498 14141 ft 354 kts 169°
2026-05-04 17:46 36.13632 24.28053 13753 ft 351 kts 169°
2026-05-04 17:47 36.11239 24.28604 13357 ft 349 kts 169°
2026-05-04 17:47 36.08893 24.29143 12988 ft 346 kts 170°
2026-05-04 17:47 36.06537 24.29684 12628 ft 343 kts 169°
2026-05-04 17:47 36.04201 24.30221 12269 ft 340 kts 169°
2026-05-04 17:48 36.01880 24.30754 11909 ft 338 kts 169°
2026-05-04 17:48 35.99575 24.31282 11548 ft 336 kts 169°
2026-05-04 17:48 35.97283 24.31807 11187 ft 334 kts 169°
2026-05-04 17:48 35.95005 24.32329 10820 ft 332 kts 169°
2026-05-04 17:49 35.92735 24.32849 10458 ft 331 kts 169°
2026-05-04 17:49 35.90478 24.33366 10174 ft 327 kts 169°
2026-05-04 17:49 35.88251 24.33875 9856 ft 324 kts 169°
2026-05-04 17:49 35.86034 24.34381 9457 ft 323 kts 169°
2026-05-04 17:50 35.83826 24.34886 9086 ft 322 kts 169°
2026-05-04 17:50 35.81631 24.35387 8720 ft 320 kts 170°
2026-05-04 17:50 35.79441 24.35886 8334 ft 320 kts 170°
2026-05-04 17:50 35.77246 24.36387 7903 ft 321 kts 170°
2026-05-04 17:51 35.75048 24.36888 7509 ft 321 kts 170°
2026-05-04 17:51 35.72855 24.37387 7148 ft 320 kts 170°
2026-05-04 17:51 35.70670 24.37885 6799 ft 319 kts 170°
2026-05-04 17:51 35.68496 24.38379 6478 ft 316 kts 171°
2026-05-04 17:52 35.66365 24.38864 6359 ft 306 kts 171°
2026-05-04 17:52 35.64314 24.39332 6297 ft 294 kts 171°
2026-05-04 17:52 35.62342 24.39779 6218 ft 283 kts 171°
2026-05-04 17:52 35.60419 24.40216 6177 ft 283 kts 171°
2026-05-04 17:53 35.58476 24.40245 5967 ft 278 kts 199°
2026-05-04 17:53 35.56864 24.39117 5567 ft 261 kts 231°
2026-05-04 17:53 35.55842 24.37362 5191 ft 248 kts 242°
2026-05-04 17:53 35.54821 24.35681 4865 ft 242 kts 235°
2026-05-04 17:54 35.53635 24.34257 4506 ft 240 kts 213°
2026-05-04 17:54 35.52143 24.33429 4258 ft 232 kts 205°
2026-05-04 17:54 35.50678 24.32740 3932 ft 224 kts 204°
2026-05-04 17:54 35.49249 24.32066 3468 ft 218 kts 205°
2026-05-04 17:55 35.47901 24.31237 2806 ft 216 kts 225°
2026-05-04 17:55 35.47055 24.29756 2171 ft 213 kts 249°
2026-05-04 17:55 35.46820 24.28068 2076 ft 186 kts 274°
2026-05-04 17:55 35.47106 24.26668 2165 ft 159 kts 294°
2026-05-04 17:56 35.47724 24.25558 2152 ft 159 kts 310°
2026-05-04 17:56 35.48597 24.24744 2129 ft 151 kts 325°
2026-05-04 17:56 35.49466 24.24133 2050 ft 142 kts 320°
2026-05-04 17:56 35.50052 24.23226 1843 ft 135 kts 296°
2026-05-04 17:57 35.50534 24.22239 1571 ft 135 kts 303°
2026-05-04 17:57 35.51060 24.21274 1323 ft 137 kts 294°
2026-05-04 17:57 35.51455 24.20213 1104 ft 136 kts 291°
2026-05-04 17:57 35.51818 24.19124 922 ft 139 kts 289°
2026-05-04 17:58 35.52164 24.18035 732 ft 133 kts 292°
2026-05-04 17:58 35.52510 24.17005 577 ft 132 kts 291°
2026-05-04 17:58 35.52835 24.15996 499 ft 110 kts 291°
2026-05-04 17:58 35.53054 24.15330 490 ft 64 kts 287°
2026-05-04 17:59 35.53218 24.14833 489 ft 60 kts 292°
2026-05-04 17:59 35.53360 24.14396 499 ft 38 kts 292°
2026-05-04 17:59 35.53455 24.14273 501 ft 8 kts 23°
2026-05-04 18:00 35.53526 24.14310 500 ft 15 kts 23°
2026-05-04 18:00 35.53599 24.14348 500 ft 11 kts 23°
2026-05-04 18:00 35.53666 24.14368 500 ft 8 kts 345°
2026-05-04 18:00 35.53697 24.14307 500 ft 11 kts 292°
2026-05-04 18:01 35.53730 24.14206 500 ft 12 kts 292°
2026-05-04 18:01 35.53762 24.14110 500 ft 13 kts 292°
2026-05-04 18:01 35.53796 24.14006 500 ft 9 kts 292°
2026-05-04 18:02 35.53851 24.13998 500 ft 5 kts 22°
2026-05-04 18:02 35.53882 24.14014 500 ft 0 kts 22°
2026-05-04 18:05 35.53886 24.14016 500 ft 0 kts 22°
2026-05-04 18:06 35.53885 24.14016 500 ft 0 kts 22°
2026-05-04 18:15 35.53884 24.14016 500 ft 0 kts 22°
2026-05-04 18:19 35.53884 24.14015 500 ft 0 kts 22°
2026-05-04 18:30 35.53883 24.14015 500 ft 0 kts 22°